Location: *
(49.8974°S, 168.6091°W)
Time: 11:37:31
(UTC+00:00)

Daily predictions for brighter satellites

Satellite Brightness Start Highest point End
(mag) Time Altitude Azimuth Time Altitude Azimuth Time Altitude Azimuth
Cosmos 2263 Rocket 4.0 15:07:39 26° SE 15:07:50 26° SE 15:12:36 10° E
CZ-4C R/B 3.5 15:35:01 41° S 15:35:01 41° S 15:39:35 10° SE
USA 229 DEB 3.9 15:35:51 61° NE 15:35:51 61° NE 15:41:08 10° NE
USA 229 3.8 15:35:56 62° NE 15:35:56 62° NE 15:41:15 10° NE
Cosmos 1980 Rocket 3.7 15:32:43 22° NNE 15:35:30 34° ENE 15:40:32 10° SE
Cosmos 2369 4.2 15:38:46 56° E 15:38:46 56° E 15:44:05 10° SE
Okean O Rocket 3.4 15:34:30 10° NE 15:37:18 30° ENE 15:37:18 30° ENE
BREEZE-M R/B 4.2 15:38:52 86° NE 15:38:52 86° NE 15:50:17 10° E
Cosmos 1898 Rocket 4.4 15:45:46 43° NE 15:45:46 43° NE 15:49:21 10° NNE
NOSS 3-1 (A) 3.5 15:47:29 70° ENE 15:47:29 70° ENE 15:52:24 10° NE
NOSS 2-3 (C) 4.4 15:51:02 86° E 15:51:02 86° E 15:56:36 10° NE
Cosmos 2278 4.2 15:56:07 36° N 15:58:12 56° ENE 16:03:48 10° SE
USA 234 3.3 15:54:55 10° ENE 16:01:29 72° SSE 16:02:51 56° SW
Cosmos 1697 Rocket 2.6 16:02:53 80° SSE 16:02:53 80° SSE 16:08:18 10° SSE
SMAP 3.9 16:00:54 10° NE 16:05:26 50° ESE 16:07:02 35° SSE
ATLAS 2AS CENTAUR R/B 3.9 16:04:40 23° S 16:05:31 24° S 16:10:42 10° SE
Cosmos 1092 Rocket 4.0 15:59:50 10° N 16:06:04 78° E 16:12:18 10° SSE
CZ-4 R/B 4.4 16:07:17 10° E 16:09:37 15° ESE 16:11:59 10° SSE
Timation 1 Rocket 4.2 16:08:49 68° SSW 16:09:40 89° SE 16:15:44 10° NNE
CZ-4B R/B 3.2 16:04:46 10° NNE 16:10:23 82° ESE 16:12:45 38° S
Cosmos 1953 3.2 16:14:22 47° ENE 16:14:22 47° ENE 16:17:33 10° NNE
Lacrosse 5 rocket 2.8 16:16:13 29° SE 16:16:13 29° SE 16:18:29 10° SE
Cosmos 1656 4.4 16:16:51 38° SSW 16:16:51 38° SSW 16:20:55 10° SSE
Cosmos 1937 Rocket 3.3 16:15:36 86° NNW 16:15:36 86° NNW 16:20:43 10° NNE
Radarsat Rocket 4.1 16:08:20 10° NNE 16:15:34 85° WNW 16:20:01 22° SSW
Nadezhda 4 Rocket 4.1 16:19:04 54° SW 16:19:04 54° SW 16:24:27 10° S
Cosmos 1025 Rocket 3.1 16:23:12 74° ESE 16:23:12 74° ESE 16:27:23 10° SSE
YAOGAN 6 3.6 16:19:51 10° NNE 16:22:43 45° ENE 16:22:43 45° ENE
ADEOS Rocket 4.4 16:18:38 10° SSE 16:23:40 33° E 16:28:42 10° NNE
Meteor 2-13 Rocket 4.4 16:20:47 10° N 16:26:57 85° E 16:33:14 10° S
H-2A R/B 4.3 16:28:13 10° S 16:29:09 16° S 16:29:09 16° S
Cosmos 2227 4.1 16:30:35 40° SSW 16:32:47 88° ESE 16:38:28 10° NNE
AQUARIUS 4.2 16:29:16 10° NNE 16:33:48 80° ESE 16:35:53 33° S
Cosmos 2360 4.1 16:33:53 43° NW 16:35:47 73° WSW 16:41:35 10° SSE
Meteor 1-16 Rocket 4.3 16:30:10 10° S 16:36:07 82° E 16:41:48 10° NNE
ATLAS CENTAUR R/B 3.4 16:35:12 21° S 16:37:09 27° SSE 16:41:17 10° E
Meteor 1-21 4.3 16:35:57 47° WNW 16:37:09 56° WSW 16:42:52 10° S
Cosmos 2322 Rocket 4.2 16:35:37 10° NNE 16:40:26 29° ENE 16:45:18 10° SE
Cosmos 1726 3.4 16:43:50 30° N 16:43:50 30° N 16:45:50 10° N
Radarsat 4.5 16:38:22 10° NNE 16:43:37 88° WNW 16:48:28 13° SSW
Cosmos 1536 Rocket 3.4 16:39:40 10° NNW 16:44:03 81° WSW 16:48:30 10° S
Aureole 3 4.4 16:40:37 10° S 16:45:30 51° ESE 16:49:19 10° NNE
Cosmos 1428 Rocket 4.4 16:40:16 10° NNW 16:46:37 79° W 16:53:04 10° S
Cosmos 1674 3.4 16:46:59 10° N 16:50:41 54° E 16:54:26 10° SSE
Cosmos 2263 Rocket 2.1 16:49:22 29° SW 16:52:24 77° WNW 16:58:07 10° NNE
Cosmos 1553 Rocket 4.0 16:46:09 10° S 16:52:41 84° W 16:59:04 10° N
Cosmos 1627 Rocket 4.4 16:48:09 10° NNW 16:54:19 63° WSW 17:00:41 10° S
Helios 1A Rocket 3.0 16:50:29 10° NNE 16:54:35 76° ESE 16:57:51 16° S
Envisat 3.0 16:52:35 10° N 16:57:37 57° W 17:01:07 20° SSW
Cosmos 2298 Rocket 4.1 16:53:44 18° SSW 16:57:51 80° ESE 17:03:11 10° NNE
Cosmos 1606 Rocket 4.0 16:53:28 10° S 16:57:52 61° ESE 17:02:11 10° NNE
NOAA 12 4.0 16:54:37 10° N 16:59:53 70° WNW 17:05:13 10° SSW
Cosmos 1461 3.7 17:03:00 30° NW 17:03:00 30° NW 17:05:51 10° N
In-Cosmos 22 4.0 16:59:00 10° NNW 17:04:31 76° WSW 17:09:59 10° S
S3M 3.9 16:59:45 10° S 17:05:59 89° W 17:12:10 10° N
USA 267 3.3 17:01:19 10° ESE 17:07:58 83° NE 17:14:35 10° NW
Meteor 2-10 4.5 17:06:37 31° WSW 17:08:03 37° W 17:12:44 10° NNW
Cosmos 2285 Rocket 4.0 17:02:17 13° SSW 17:08:15 77° WNW 17:14:41 10° NNE
NOAA 11 4.4 17:03:53 10° NNE 17:09:25 76° ESE 17:15:02 10° SSW
ATLAS 5 CENTAUR R/B 3.8 17:03:11 10° N 17:09:54 44° ENE 17:16:06 10° SE
Cosmos 1437 2.7 17:07:04 10° N 17:10:06 76° E 17:13:12 10° SSE
Cosmos 2208 Rocket 3.9 17:06:11 10° NNW 17:11:25 85° WSW 17:16:42 10° SSE
Cosmos 2360 Rocket 4.4 17:06:54 10° NNE 17:11:33 27° ENE 17:16:14 10° SE
Cosmos 1814 Rocket 4.0 17:08:23 10° NNW 17:13:43 87° WSW 17:19:10 10° SSE
Okean O Rocket 2.5 17:11:10 10° NNW 17:14:46 29° WNW 17:14:46 29° WNW
H-2A R/B 4.0 17:11:48 10° ENE 17:15:52 26° ESE 17:20:00 10° S
SKYMED 2 4.2 17:14:46 10° SSE 17:19:10 60° E 17:23:30 10° N
Cosmos 1980 Rocket 2.4 17:14:37 14° NW 17:19:21 48° SW 17:24:50 10° SSE
Cosmos 1763 Rocket 3.9 17:15:53 18° WNW 17:19:29 41° WSW 17:24:30 10° SSE
CORIOLIS 4.4 17:14:56 10° N 17:20:11 48° W 17:25:29 10° SSW
Cosmos 2084 4.2 17:18:23 20° SSW 17:21:07 46° SE 17:25:17 10° ENE
ARGOS Delta rocket 3.9 17:17:53 10° N 17:22:47 58° W 17:27:28 10° SSW
Cosmos 2369 4.4 17:20:46 25° W 17:22:58 32° SW 17:28:07 10° SSE
CZ-4C R/B 3.8 17:20:13 19° SW 17:23:16 26° SSW 17:28:18 10° SE
Cosmos 1726 Rocket 3.5 17:20:42 10° S 17:25:09 90° W 17:29:31 10° N
Cosmos 1844 Rocket 3.4 17:23:30 10° SSW 17:29:10 55° SE 17:34:45 10° NE
Feng Yun 1-1 Rocket 4.4 17:27:23 10° N 17:32:46 52° W 17:38:20 10° SSW
CZ-2C R/B 4.4 17:28:46 10° NE 17:33:35 40° ESE 17:38:42 10° S
PSLV R/B 3.9 17:30:14 10° S 17:34:25 70° WSW 17:38:35 10° NNW
Aureole 3 Rocket 4.1 17:36:45 21° W 17:36:52 21° W 17:40:12 10° NW
KORONAS-FOTON 4.0 17:33:09 10° NNW 17:36:53 49° WSW 17:40:43 10° S
Cosmos 1939 Rocket 2.9 17:36:42 10° N 17:40:47 76° WNW 17:45:00 10° SSW
CSL-04 Rocket 4.2 17:36:01 10° NNE 17:41:23 64° ESE 17:46:55 10° S
Cosmos 1689 Rocket 3.0 17:39:09 10° S 17:41:50 27° WSW 17:44:30 10° NW
Cosmos 1570 Rocket 4.4 17:37:04 10° NW 17:42:14 45° WSW 17:47:28 10° SSE
Cosmos 540 Rocket 3.7 17:37:18 10° NW 17:42:20 48° WSW 17:47:26 10° SSE
Cosmos 2278 4.4 17:38:08 13° WNW 17:42:40 33° SW 17:47:48 10° SSE
SMAP 4.2 17:39:19 10° NW 17:43:04 23° W 17:45:30 16° SW
SL-16 R/B 2.2 17:38:17 10° NNW 17:43:59 88° WSW 17:49:46 10° SSE
CZ-4 R/B 1.5 17:39:47 10° NNE 17:44:02 82° WNW 17:48:22 10° SSW
USA 234 3.6 17:38:19 10° NNE 17:44:42 51° NW 17:50:12 15° WSW
Cosmos 1626 2.1 17:43:03 10° N 17:46:49 88° W 17:50:40 10° S
CSL-04 Debris 4.4 17:41:40 10° NNE 17:47:05 73° ESE 17:52:33 10° SSW
Cosmos 1697 Rocket 3.9 17:44:40 17° WSW 17:47:19 23° SW 17:51:49 10° SSE
Cosmos 841 Rocket 3.9 17:43:27 10° NW 17:48:29 42° WSW 17:53:35 10° SSE
Cosmos 2228 3.4 17:44:28 10° SSW 17:48:36 42° W 17:52:39 10° NNW
Cosmos 1953 4.1 17:50:07 15° W 17:50:07 15° W 17:51:50 10° WNW
Okean-O 2.7 17:45:17 10° N 17:49:42 57° W 17:54:10 10° SSW
Cosmos 2278 Rocket 4.0 17:45:24 10° SSW 17:50:04 25° SE 17:54:42 10° E
SL-14 R/B 3.2 17:49:07 10° NNW 17:53:04 83° W 17:57:03 10° S
Orbus 7S? 3.9 17:50:38 10° NW 17:54:01 81° NE 18:01:28 10° ESE
Lacrosse 5 rocket 2.5 17:51:51 16° SW 17:54:23 29° S 17:58:07 10° ESE
Cosmos 1908 4.3 17:52:24 13° SW 17:55:03 24° W 17:58:13 10° NW
CZ-2D R/B 3.3 17:51:54 10° N 17:55:48 62° W 17:59:45 10° SSW
Cosmos 1125 Rocket 3.6 17:51:45 10° SSW 17:57:00 59° WNW 18:02:09 10° N
YAOGAN 6 4.4 17:55:18 10° WNW 17:57:05 14° W 17:57:05 14° W
Cosmos 2098 Rocket 4.0 17:52:10 10° NNW 17:57:59 75° WSW 18:05:06 10° S
ATLAS 2AS CENTAUR R/B 3.6 17:52:16 10° SW 17:58:11 37° SSE 18:04:30 10° E
Cosmos 1300 2.7 17:56:34 10° SSW 18:00:26 60° W 18:04:15 10° N
Meteor 2-10 Rocket 4.5 17:59:19 10° S 18:04:56 54° ESE 18:10:14 10° NNE
SL-24 R/B 4.2 18:02:25 10° N 18:06:44 63° W 18:11:20 10° SSW
COSMO-SKYMED 1 2.8 18:02:57 10° S 18:07:13 48° WSW 18:11:27 10° NW
ASTEX 1 4.3 18:04:15 10° NW 18:08:31 29° W 18:12:52 10° SSW
Meteor 1-24 Rocket 3.6 18:03:13 10° NNW 18:08:35 69° WSW 18:13:59 10° S
ADEOS Rocket 3.1 18:04:09 10° S 18:09:23 42° WSW 18:14:37 10° NW
Cosmos 1818 3.6 18:05:17 10° NW 18:10:43 88° SW 18:16:12 10° SE
Cosmos 1892 Rocket 3.7 18:06:45 10° NNW 18:11:08 52° WSW 18:15:34 10° S
Cosmos 1455 3.5 18:10:24 10° S 18:14:04 41° ESE 18:17:41 10° NE
SJ-11-01 4.5 18:09:55 10° NNE 18:14:43 84° ESE 18:19:33 10° SSW
SL-24 R/B - RUBIN 2 4.3 18:10:13 10° NNW 18:14:52 61° NE 18:19:10 10° SE
Cosmos 1655 Rocket 4.4 18:09:29 10° NW 18:15:19 40° WSW 18:21:14 10° S
ATLAS CENTAUR R/B 1.8 18:11:46 10° SW 18:16:39 82° NW 18:21:31 10° NE
YAOGAN 1 3.0 18:16:12 10° N 18:20:23 44° W 18:24:38 10° SSW
Cosmos 1356 Rocket 4.2 18:17:04 10° SSW 18:20:50 33° W 18:24:36 10° NNW
Cosmos 2266 Rocket 4.3 18:16:08 10° NW 18:22:09 46° WSW 18:28:09 10° S
Cosmos 1626 Rocket 3.8 18:18:00 10° N 18:22:21 77° E 18:26:47 10° SSE
Meteor 2-5 Rocket 4.1 18:18:42 10° NW 18:24:00 43° WSW 18:29:21 10° S
Cosmos 2322 Rocket 2.3 18:18:31 10° NW 18:24:10 57° SW 18:29:52 10° SSE
SJ-6B 4.1 18:20:41 10° NE 18:24:15 39° ESE 18:27:50 10° S
Cosmos 1674 4.3 18:24:16 10° WNW 18:26:34 15° WSW 18:28:54 10° SSW
USA 186 2.4 18:24:46 10° NNE 18:27:17 46° ESE 18:30:00 10° S
Cosmos 2058 Rocket 3.8 18:23:28 10° SSW 18:27:31 34° W 18:31:34 10° NNW
Nadezhda 1 Rocket 4.5 18:24:57 10° S 18:31:06 65° ESE 18:37:14 10° NNE
